Location: Alphen
(52.1351°N, 4.6549°E)
Time: 01:22:19
(UTC+00:00)

Cosmos 2098 Rocket - Pass Details

Date: 27 January 2021
Orbit: 366 x 1182 km, 82.9° (Epoch: 26 February)

Event Time Altitude Azimuth Distance (km) Brightness Sun altitude
Rises 06:24:50 0° 344° (NNW) 3,674 6.7 -9.9°
Reaches altitude 10° 06:27:54 10° 334° (NNW) 2,585 5.8 -9.4°
Maximum altitude 06:32:42 28° 279° (W) 1,450 4.4 -8.7°
Drops below altitude 10° 06:36:42 10° 221° (SW) 2,110 5.6 -8.1°
Sets 06:38:59 0° 209° (SSW) 2,886 6.4 -7.8°
